TimeCST,TemperatureF,Dew PointF,Humidity,Sea Level PressureIn,VisibilityMPH,Wind Direction,Wind SpeedMPH,Gust SpeedMPH,PrecipitationIn,Events,Conditions,WindDirDegrees,DateUTC
12:15 AM,44.6,42.8,93,30.07,5.0,NNE,5.8,-,N/A,,Clear,20,2013-01-01 06:15:00
12:35 AM,44.6,42.8,93,30.07,5.0,North,6.9,-,N/A,,Scattered Clouds,10,2013-01-01 06:35:00
12:55 AM,44.6,42.8,93,30.06,5.0,NNE,6.9,-,N/A,,Mostly Cloudy,30,2013-01-01 06:55:00
1:15 AM,44.6,42.8,93,30.06,5.0,NNE,6.9,-,N/A,,Overcast,20,2013-01-01 07:15:00
1:35 AM,44.6,42.8,93,30.08,7.0,NE,3.5,-,N/A,,Overcast,50,2013-01-01 07:35:00
1:55 AM,44.6,42.8,93,30.09,5.0,NE,3.5,-,N/A,,Overcast,40,2013-01-01 07:55:00
2:15 AM,44.6,41.0,87,30.09,5.0,NNE,5.8,-,N/A,,Overcast,20,2013-01-01 08:15:00
2:35 AM,44.6,41.0,87,30.09,7.0,NE,8.1,-,N/A,,Mostly Cloudy,40,2013-01-01 08:35:00
2:55 AM,44.6,41.0,87,30.09,7.0,NNE,8.1,-,N/A,,Mostly Cloudy,30,2013-01-01 08:55:00
3:15 AM,44.6,41.0,87,30.09,7.0,NNE,8.1,-,N/A,,Overcast,20,2013-01-01 09:15:00
3:35 AM,42.8,41.0,93,30.10,7.0,NNE,9.2,-,N/A,,Overcast,20,2013-01-01 09:35:00
3:55 AM,42.8,41.0,93,30.11,7.0,North,9.2,-,N/A,,Overcast,360,2013-01-01 09:55:00
4:15 AM,42.8,39.2,87,30.10,7.0,North,8.1,-,N/A,,Mostly Cloudy,10,2013-01-01 10:15:00
4:35 AM,42.8,41.0,93,30.12,7.0,NNW,3.5,-,N/A,,Mostly Cloudy,340,2013-01-01 10:35:00
4:55 AM,42.8,41.0,93,30.11,5.0,North,4.6,-,N/A,,Mostly Cloudy,360,2013-01-01 10:55:00
5:15 AM,42.8,39.2,87,30.13,7.0,NNW,6.9,-,N/A,,Overcast,340,2013-01-01 11:15:00
5:35 AM,42.8,39.2,87,30.15,7.0,NW,8.1,-,N/A,,Mostly Cloudy,310,2013-01-01 11:35:00
5:55 AM,42.8,39.2,87,30.13,7.0,North,8.1,-,N/A,,Scattered Clouds,350,2013-01-01 11:55:00
7:50 AM,39.2,37.4,93,30.17,10.0,NNW,8.1,-,N/A,,Overcast,340,2013-01-01 13:50:00
8:50 AM,39.2,37.4,93,30.22,7.0,NW,4.6,-,N/A,,Overcast,310,2013-01-01 14:50:00
10:50 AM,39.2,35.6,87,30.28,10.0,WNW,6.9,-,N/A,,Overcast,300,2013-01-01 16:50:00
11:50 AM,42.8,35.6,76,30.26,10.0,NW,6.9,-,N/A,,Overcast,310,2013-01-01 17:50:00
1:50 PM,42.8,33.8,70,30.23,10.0,NNW,9.2,-,N/A,,Overcast,330,2013-01-01 19:50:00
2:50 PM,39.2,32.0,75,30.23,10.0,WNW,6.9,-,N/A,,Overcast,300,2013-01-01 20:50:00
4:50 PM,39.2,32.0,75,30.26,10.0,North,11.5,16.1,N/A,,Overcast,350,2013-01-01 22:50:00
8:15 PM,35.6,30.2,81,30.29,10.0,North,6.9,-,N/A,,Overcast,360,2013-01-02 02:15:00
8:35 PM,35.6,30.2,81,30.29,10.0,North,4.6,-,N/A,,Overcast,350,2013-01-02 02:35:00
8:55 PM,35.6,30.2,81,30.30,10.0,North,8.1,-,N/A,,Overcast,360,2013-01-02 02:55:00
9:15 PM,35.6,30.2,81,30.31,10.0,North,9.2,-,N/A,,Overcast,360,2013-01-02 03:15:00
9:35 PM,35.6,30.2,81,30.31,10.0,NW,6.9,-,N/A,,Overcast,320,2013-01-02 03:35:00
9:55 PM,35.6,30.2,81,30.31,10.0,NW,4.6,-,N/A,,Overcast,310,2013-01-02 03:55:00
10:15 PM,35.6,28.4,75,30.32,10.0,WNW,5.8,-,N/A,,Overcast,300,2013-01-02 04:15:00
10:35 PM,35.6,28.4,75,30.33,10.0,NNW,6.9,-,N/A,,Overcast,330,2013-01-02 04:35:00
10:55 PM,35.6,28.4,75,30.33,10.0,NNW,4.6,-,N/A,,Mostly Cloudy,330,2013-01-02 04:55:00
11:15 PM,35.6,28.4,75,30.33,10.0,NNW,9.2,-,N/A,,Overcast,340,2013-01-02 05:15:00
11:35 PM,33.8,28.4,81,30.33,10.0,North,8.1,-,N/A,,Overcast,350,2013-01-02 05:35:00
11:55 PM,33.8,28.4,81,30.32,10.0,NNW,6.9,-,N/A,,Overcast,340,2013-01-02 05:55:00